{"data":{"norad_id":63108,"epoch":"2026-09-21T00:22:27.916032Z","epoch_age_seconds":117702,"freshness":"FRESH","line1":"1 63108U 25039E   26264.01560088  .00190059  00000+0  14504-2 0  9994","line2":"2 63108  43.0019 139.6212 0001978 257.4088 102.6559 15.70850100 90330","mean_motion":15.708501,"eccentricity":0.0001978,"inclination_deg":43.0019,"raan_deg":139.6212,"arg_perigee_deg":257.4088,"mean_anomaly_deg":102.6559,"bstar":0.0014504,"rev_number":9033,"period_min":91.670109070242,"perigee_km":355.13408952121,"apogee_km":357.79829854477,"semimajor_km":6734.603194033,"source":"CELESTRAK","updated_at":"2026-09-22T09:00:49.763001Z"}}